Location: Unspecified
(41.5000°N, 0.0000°E)
Time: 02:51:58
(UTC+00:00)

Vanguard 3 - Pass Details

Date: 20 June 2019
Orbit: 507 x 3264 km, 33.4° (Epoch: 19 July)

Event Time Altitude Azimuth Distance (km) Brightness Sun altitude
Rises 12:17:45 0° 240° (WSW) 5,898 11.7 71.6°
Reaches altitude 10° 12:22:35 10° 234° (SW) 4,418 11.3 71.4°
Maximum altitude 12:32:26 39° 172° (S) 1,870 10.1 70.8°
Drops below altitude 10° 12:38:19 10° 105° (ESE) 2,635 9.9 70.4°
Sets 12:40:31 0° 96° (E) 3,333 10.2 70.2°
